KB2UHF-8 Weather Reports


time (UTC)temp
F
wind
direction
speed
knots
gust
knots
rain 1hr
in
rain 24hr
in
rain mn
in
humidity
%
barometer
mb
20260503203517 70 270 4.3 9.6 0.00 0.00 0.00 39 1005.1
20260503202517 69 270 7.0 14.8 0.00 0.00 0.00 39 1005.0
20260503201517 69 270 8.7 14.8 0.00 0.00 0.00 39 1005.2
20260503200517 69 248 5.2 12.2 0.00 0.00 0.00 40 1005.3
20260503195517 69 270 7.0 12.2 0.00 0.00 0.00 41 1005.3
20260503194517 68 270 7.8 13.9 0.00 0.00 0.00 40 1005.3
20260503193517 67 293 7.0 11.3 0.00 0.00 0.00 40 1005.4
20260503192537 68 225 5.2 11.3 0.00 0.00 0.00 42 1005.6
20260503191517 67 248 7.0 13.0 0.00 0.00 0.00 42 1005.6
20260503190537 67 225 4.3 9.6 0.00 0.00 0.00 42 1005.7
20260503185517 65 225 6.1 13.0 0.00 0.00 0.00 44 1005.7
20260503184517 65 248 6.1 13.0 0.00 0.00 0.00 44 1005.7
20260503183517 65 225 5.2 11.3 0.00 0.00 0.00 50 1005.8
20260503182517 64 270 7.0 12.2 0.00 0.00 0.00 44 1005.9
20260503181517 64 248 7.0 13.0 0.00 0.00 0.00 48 1005.9
20260503180557 64 248 7.8 15.6 0.00 0.00 0.00 45 1006.0
20260503175517 63 225 7.0 13.9 0.00 0.00 0.00 46 1006.2
20260503174537 64 225 5.2 12.2 0.00 0.00 0.00 50 1006.1
20260503173517 63 225 4.3 8.7 0.00 0.00 0.00 49 1006.2
20260503172517 62 270 7.0 15.6 0.00 0.00 0.00 48 1006.3
20260503171537 62 248 8.7 14.8 0.00 0.00 0.00 46 1006.6
20260503170537 62 270 5.2 14.8 0.00 0.00 0.00 50 1006.7
20260503150518 59 225 6.1 14.8 0.00 0.00 0.00 51 1007.2
20260503130518 53 203 5.2 13.0 0.00 0.00 0.00 62 1008.3
20260503110516 51 225 6.1 14.8 0.00 0.00 0.00 63 1009.5
20260503081516 51 225 5.2 10.4 0.00 0.00 0.00 49 1011.0
20260503080516 51 225 6.1 13.0 0.00 0.00 0.00 49 1011.1
20260503072516 51 225 4.3 8.7 0.00 0.00 0.00 49 1011.2
20260503071516 50 225 4.3 8.7 0.00 0.00 0.00 50 1011.4
20260503070616 50 225 3.5 7.8 0.00 0.00 0.00 50 1011.5
20260503054536 49 225 4.3 9.6 0.00 0.00 0.00 50 1012.1
20260503053516 49 225 3.5 9.6 0.00 0.00 0.00 50 1012.2
20260503052537 49 225 3.5 8.7 0.00 0.00 0.00 50 1012.2
20260503051536 50 225 3.5 6.1 0.00 0.00 0.00 50 1012.3
20260503050536 50 225 4.3 8.7 0.00 0.00 0.00 49 1012.2
20260503045516 50 225 3.5 7.8 0.00 0.00 0.00 49 1012.3
20260503044516 50 225 3.5 7.0 0.00 0.00 0.00 49 1012.4
20260503043517 50 225 3.5 7.8 0.00 0.00 0.00 49 1012.5
20260503042536 50 225 3.5 7.0 0.00 0.00 0.00 49 1012.7
20260503041516 50 225 3.5 7.8 0.00 0.00 0.00 50 1012.7
20260503040516 50 225 3.5 7.0 0.00 0.00 0.00 49 1012.8
20260503035516 50 225 2.6 5.2 0.00 0.00 0.00 49 1012.8
20260503034516 50 225 2.6 5.2 0.00 0.00 0.00 48 1012.9
20260503033516 50 225 2.6 5.2 0.00 0.00 0.00 48 1013.0
20260503032516 51 225 2.6 4.3 0.00 0.00 0.00 48 1013.1
20260503031516 51 225 1.7 3.5 0.00 0.00 0.00 47 1013.1
20260503030516 51 203 0.9 2.6 0.00 0.00 0.00 46 1013.3
20260503025516 52 225 1.7 5.2 0.00 0.00 0.00 45 1013.3
20260503024516 52 225 2.6 7.0 0.00 0.00 0.00 44 1013.3
20260503023516 52 225 2.6 7.0 0.00 0.00 0.00 44 1013.3
20260503022517 53 225 2.6 4.3 0.00 0.00 0.00 43 1013.4
20260503021516 53 225 2.6 5.2 0.00 0.00 0.00 42 1013.4
20260503020516 53 225 2.6 4.3 0.00 0.00 0.00 42 1013.4
20260503015516 54 225 2.6 4.3 0.00 0.00 0.00 41 1013.4
20260503014516 54 225 2.6 3.5 0.00 0.00 0.00 40 1013.3
20260503013517 54 225 2.6 4.3 0.00 0.00 0.00 40 1013.1
20260503012516 55 225 2.6 4.3 0.00 0.00 0.00 40 1013.3
20260503011516 55 225 3.5 6.1 0.00 0.00 0.00 39 1013.2
20260503010516 55 225 3.5 6.1 0.00 0.00 0.00 39 1013.2
20260503005516 56 225 3.5 6.1 0.00 0.00 0.00 38 1013.3
20260503004516 56 248 3.5 5.2 0.00 0.00 0.00 36 1013.2
20260503003516 57 248 5.2 9.6 0.00 0.00 0.00 36 1013.3
20260503002516 57 248 7.0 13.9 0.00 0.00 0.00 35 1013.4
20260503001516 58 248 5.2 8.7 0.00 0.00 0.00 35 1013.5
20260503000516 58 248 7.8 13.0 0.00 0.00 0.00 34 1013.6
20260502235516 59 248 6.1 11.3 0.00 0.00 0.00 34 1013.5
20260502234516 59 248 4.3 12.2 0.00 0.00 0.00 33 1013.5
20260502233516 59 248 7.0 13.9 0.00 0.00 0.00 32 1013.5
20260502232536 59 270 7.8 15.6 0.00 0.00 0.00 31 1013.6
20260502231516 60 270 7.8 13.0 0.00 0.00 0.00 33 1013.6
20260502230516 60 270 7.0 13.0 0.00 0.00 0.00 32 1014.0
20260502225516 60 248 6.1 12.2 0.00 0.00 0.00 34 1014.0
20260502224516 59 248 7.8 13.9 0.00 0.00 0.00 33 1014.1
20260502223516 59 270 7.0 13.0 0.00 0.00 0.00 33 1014.0
20260502222516 60 248 8.7 15.6 0.00 0.00 0.00 35 1014.4
20260502221516 60 225 5.2 9.6 0.00 0.00 0.00 34 1014.5
20260502220516 59 270 6.1 12.2 0.00 0.00 0.00 32 1014.6
20260502215516 60 270 7.0 13.0 0.00 0.00 0.00 33 1014.7
20260502214517 59 270 6.1 9.6 0.00 0.00 0.00 34 1014.7
20260502213516 59 248 7.8 15.6 0.00 0.00 0.00 32 1014.9
20260502212516 59 293 7.8 20.9 0.00 0.00 0.00 33 1015.0
20260502211516 59 270 4.3 9.6 0.00 0.00 0.00 36 1015.1
20260502210516 59 248 7.8 15.6 0.00 0.00 0.00 33 1015.3
20260502205516 59 248 7.0 14.8 0.00 0.00 0.00 37 1015.3
20260502204516 59 270 7.8 13.0 0.00 0.00 0.00 33 1015.4